/148.9   316.2/31.00    + 5.8  276    -39.0   88    2417177.7  30.96

2002  1  6  11 30 00   08 48 52.1   -01 45 57     0.01581   0.996   12.8  1385.8

/149.1   316.4/31.46    +11.4  280    -45.1   93    2364903.5  30.96

2002  1  6  12 00 00   08 49 51.4   -02 10 44     0.01546   0.996   12.8  1446.3

/149.3   316.5/31.93    +17.0  285    -51.2   98    2312838.1  30.92

2002  1  6  12 30 00   08 50 52.9   -02 36 39     0.01511   0.996   12.7  1511.7

/149.5   316.7/32.43    +22.4  291    -57.2  103    2260977.4  30.89

2002  1  6  13 00 00   08 51 56.8   -03 03 47     0.01477   0.995   12.7  1580.1

/149.7   316.9/32.95    +27.5  296    -63.1  111    2209317.8  30.88

2002  1  6  13 30 00   08 53 03.5   -03 32 11     0.01442   0.995   12.6  1654.1

/149.8   317.0/33.50    +32.3  302    -68.6  121    2157930.7  30.83

2002  1  6  14 00 00   08 54 13.0   -04 01 58     0.01408   0.995   12.6  1734.4

/149.9   317.2/34.06    +36.7  309    -73.4  137    2106813.2  30.79

2002  1  6  14 30 00   08 55 25.7   -04 33 13     0.01374   0.994   12.6  1818.8

/150.0   317.4/34.66    +40.6  317    -76.6  161    2055963.1  30.76

2002  1  6  15 00 00   08 56 41.8   -05 06 01     0.01341   0.994   12.5  1910.4

/150.0   317.5/35.29    +43.8  326    -77.0  191    2005451.8  30.70

2002  1  6  15 30 00   08 58 01.7   -05 40 29     0.01307   0.994   12.5  2009.8

/150.0   317.7/35.94    +46.2  335    -74.4  218    1955277.6  30.65

2002  1  6  16 00 00   08 59 25.8   -06 16 44     0.01274   0.993   12.5  2114.8

/150.0   317.9/36.63    +47.5  346    -70.0  235    1905440.3  30.62

2002  1  6  16 30 00   09 00 54.5   -06 54 53     0.01241   0.993   12.4  2229.0

/150.0   318.0/37.36    +47.8  356    -64.6  247    1856011.7  30.55

2002  1  6  17 00 00   09 02 28.3   -07 35 05     0.01208   0.993   12.4  2353.2

/149.9   318.2/38.13    +47.0    7    -58.8  255    1806993.0  30.51

2002  1  6  17 30 00   09 04 07.7   -08 17 28     0.01175   0.992   12.3  2484.9

/149.8   318.4/38.93    +45.1   17    -52.8  261    1758387.0  30.48

2002  1  6  18 00 00   09 05 53.2   -09 02 11     0.01143   0.992   12.3  2628.3

/149.7   318.5/39.79    +42.3   26    -46.7  266    1710268.4  30.42

2002  1  6  18 30 00   09 07 45.5   -09 49 25     0.01111   0.991   12.3  2784.5

/149.5   318.6/40.69    +38.7   34    -40.6  271    1662643.3  30.38

2002  1  6  19 00 00   09 09 45.3   -10 39 22     0.01080   0.991   12.2  2950.7

/149.3   318.7/41.65    +34.6   40    -34.5  275    1615521.1  30.36

2002  1  6  19 30 00   09 11 53.4   -11 32 11     0.01049   0.991   12.2  3131.7

/149.1   318.9/42.67    +29.9   46    -28.4  279    1568982.4  30.31

2002  1  6  20 00 00   09 14 10.7   -12 28 07     0.01018   0.990   12.2  3329.2

/148.9   318.9/43.74    +24.9   52    -22.4  282    1523042.8  30.29

2002  1  6  20 30 00   09 16 38.2   -13 27 26     0.00988   0.990   12.1  3539.5

/148.6   319.0/44.89    +19.6   56    -16.4  286    1477723.8  30.28

2002  1  6  21 00 00   09 19 17.0   -14 30 18     0.00958   0.990   12.1  3768.7

/148.3   319.0/46.11    +14.1   60    -10.6  290    1433116.8  30.25

2002  1  6  21 30 00   09 22 08.3   -15 37 01     0.00929   0.989   12.1  4018.4

/148.0   319.1/47.41    + 8.4   64    - 4.9  294    1389253.6  30.24

2002  1  6  22 00 00   09 25 13.7   -16 47 54     0.00900   0.989   12.0  4284.2

/147.6   319.0/48.80    + 2.7   67    + 0.6  298    1346174.8  30.25

2002  1  6  22 30 00   09 28 34.7   -18 03 10     0.00872   0.989   12.0  4573.0

/147.3   319.0/50.27    - 3.2   70    + 5.8  303    1303990.0  30.24

2002  1  6  23 00 00   09 32 13.1   -19 23 10     0.00844   0.988   12.0  4886.4

/146.8   318.9/51.85    - 9.1   73    +10.8  308    1262756.3  30.25

2002  1  6  23 30 00   09 36 11.3   -20 48 13     0.00817   0.988   12.0  5218.4

/146.4   318.7/53.54    -15.0   75    +15.5  313    1222542.2  30.28

2002  1  7  00 00 00   09 40 31.4   -22 18 32     0.00791   0.988   11.9  5576.5

/145.9   318.5/55.34    -20.9   77    +19.8  319    1183485.3  30.29

2002  1  7  00 30 00   09 45 16.4   -23 54 27     0.00766   0.987   11.9  5961.3

/145.3   318.2/57.27    -26.7   78    +23.6  325    1145677.5  30.32

2002  1  7  01 00 00   09 50 29.6   -25 36 15     0.00741   0.987   11.9  6363.6

/144.7   317.8/59.33    -32.5   80    +26.8  332    1109226.1  30.37

2002  1  7  01 30 00   09 56 14.6   -27 24 01     0.00718   0.987   11.9  6790.4

/144.0   317.3/61.53    -38.2   81    +29.4  339    1074305.0  30.39

2002  1  7  02 00 00   10 02 35.9   -29 17 54     0.00696   0.986   11.9  7239.7

/143.2   316.7/63.88    -43.7   81    +31.2  347    1041049.5  30.43

2002  1  7  02 30 00   10 09 38.9   -31 17 56     0.00675   0.986   11.9  7696.6

/142.3   315.9/66.39    -49.1   81    +32.2  355    1009612.7  30.49

2002  1  7  03 00 00   10 17 29.0   -33 23 49     0.00655   0.985   11.9  8165.6

/141.2   315.0/69.05    -54.2   80    +32.3    3     980206.2  30.52

2002  1  7  03 30 00   10 26 13.5   -35 35 11     0.00637   0.985   12.0  8639.5

/139.9   313.9/71.88    -59.0   78    +31.6   11     953008.0  30.57

2002  1  7  04 00 00   10 36 00.4   -37 51 24     0.00620   0.985   12.0  9095.5

/138.4   312.5/74.87    -63.3   74    +30.0   19     928209.5  30.63

2002  1  7  04 30 00   10 46 58.4   -40 11 18     0.00606   0.984   12.1  9534.0

/136.7   310.9/78.02    -67.0   69    +27.6   26     906042.5  30.66

2002  1  7  05 00 00   10 59 17.6   -42 33 29     0.00593   0.984   12.1  9942.1

/134.7   308.9/81.32    -70.0   61    +24.6   33     886702.1  30.71

2002  1  7  05 30 00   11 13 09.3   -44 56 07     0.00582   0.984   12.2 10290.8

/132.3   306.5/84.76    -71.9   51    +21.0   40     870381.0  30.77

2002  1  7  06 00 00   11 28 43.7   -47 16 36     0.00573   0.983   12.3 10580.0

/129.6   303.8/88.33    -72.8   40    +16.8   46     857279.9  30.80

2002  1  7  06 30 00   11 46 11.3   -49 32 09     0.00567   0.983   12.5 10797.1

/126.3   300.5/91.99    -72.7   30    +12.2   51     847550.9  30.84

2002  1  7  07 00 00   12 05 40.0   -51 39 29     0.00562   0.983   12.6 10916.2

/122.6   296.7/95.73    -71.9   21    + 7.3   56     841319.9  30.89

2002  1  7  07 30 00   12 27 11.3   -53 34 57     0.00561   0.982   12.8 10946.5

/118.4   292.4/99.50    -70.7   15    + 2.1   61     838681.4  30.90

2002  1  7  08 00 00   12 50 40.3   -55 15 05     0.00561   0.982   13.0 10886.5

/113.7   287.5/103.3    -69.4   11    - 3.3   65     839674.0  30.93

2002  1  7  08 30 00   13 15 51.6   -56 36 47     0.00564   0.982   13.2 10723.7

/108.5   282.2/107.1    -68.3    8    - 9.0   69     844295.4  30.96

2002  1  7  09 00 00   13 42 16.1   -57 37 35     0.00570   0.981   13.4 10481.5

/103.1   276.5/110.8    -67.4    6    -14.7   73     852487.7  30.96

2002  1  7  09 30 00   14 09 16.4   -58 16 22     0.00578   0.981   13.7 10171.0

/ 97.4   270.6/114.4    -66.8    5    -20.7   77     864154.2  30.97

2002  1  7  10 00 00   14 36 09.8   -58 33 15     0.00588   0.980   14.0  9791.0

/ 91.8   264.7/117.9    -66.6    4    -26.7   80     879165.7  30.99

NAKANO

         **** Don't distribute anyone except personal use only ****

                (C) Copyright 2002 OAA/ComputingSection

write mail from CFAD0::NAKANO on 2002-01-06 01:48:37(JST).

 

◎2001 YB5の軌道と予報位置です



 このアポロ型小惑星は,1月7日07時UTに地球に0.006AUまで接近し,

12等級まで明るくなり,日々運動が180゚以上(1秒間に8"の移動)の猛烈

な速度で空を駆け抜けて行きます.我が国での観測の好機は,1月6/7日

夜までです.



No identification:

 

2001 YB5                                                                    

Epoch 2001 Oct. 18.0 TT = JDT 2452200.5                 MPC      

M 327.14765              (2000.0)            P               Q

n   0.26966604     Peri.  114.04371     -0.72150145     +0.68662380

a   2.3727494      Node   109.45613     -0.66471855     -0.65072232

e   0.8634095      Incl.    5.43757     -0.19386827     -0.32420398

P   3.65           H   20.2           G   0.15           U   8

                                                              Vel.to

Date        Time (UT)  R. A. (2000) Decl.         Delta     R       Mag.   Daily

 Motion   P.A./Tail    Obj. h    A    Sun h   A     Distance    355

Year Mo. D.  h  m  s     h  m  s       。  ,  "         AU      AU    V        , 

    。       。    。         。      。      。      。         Km    Km/s

2002  1  4  00 00 00   08 16 14.7   +11 16 09     0.05901   1.038   15.2   105.8

/145.2   304.3/15.98    -15.7  117    +19.7  319    8828167.5    .  

2002  1  4  01 00 00   08 16 24.9   +11 12 31     0.05828   1.038   15.1   109.5

/144.0   304.4/16.05    -26.1  128    +26.6  332    8719190.6  30.43

2002  1  4  02 00 00   08 16 35.9   +11 08 50     0.05755   1.037   15.1   112.9

/143.1   304.5/16.14    -34.9  141    +30.9  347    8610020.1  30.49

2002  1  4  03 00 00   08 16 47.4   +11 05 04     0.05682   1.036   15.1   115.9

/142.6   304.6/16.22    -41.2  158    +32.0    3    8500546.9  30.58

2002  1  4  04 00 00   08 16 59.3   +11 01 14     0.05609   1.035   15.0   118.4

/142.4   304.7/16.30    -43.8  178    +29.6   19    8390760.8  30.67

2002  1  4  05 00 00   08 17 11.6   +10 57 19     0.05535   1.035   15.0   120.6

/142.5   304.9/16.39    -42.1  198    +24.1   33    8280674.2  30.76

2002  1  4  06 00 00   08 17 24.1   +10 53 20     0.05461   1.034   15.0   122.3

/143.0   305.0/16.48    -36.6  216    +16.3   46    8170244.3  30.85

2002  1  4  07 00 00   08 17 36.6   +10 49 16     0.05387   1.033   15.0   123.7

/143.8   305.1/16.57    -28.3  230    + 6.9   56    8059530.2  30.93

2002  1  4  08 00 00   08 17 49.0   +10 45 06     0.05313   1.033   14.9   125.0

/144.9   305.2/16.67    -18.2  242    - 3.8   65    7948612.7  30.99

2002  1  4  09 00 00   08 18 01.2   +10 40 50     0.05239   1.032   14.9   126.4

/146.2   305.3/16.76    - 7.0  252    -15.2   73    7837509.4  31.04

2002  1  4  10 00 00   08 18 13.1   +10 36 28     0.05165   1.031   14.9   127.9

/147.7   305.5/16.85    + 4.9  260    -27.1   80    7726330.4  31.06

